Edwards AFB, CA

10:55 AM PDT on June 23, 2017 (GMT -0700)
Edwards Air Force Base

Weather History for KEDW - May, 2013

Change the Weather History Date:

Saturday, May 11, 2013

  Actual Average Record
Temperature  
Mean Temperature 74 °F -  
Max Temperature 93 °F 79 °F 98 °F (2001)
Min Temperature 55 °F 50 °F 41 °F (2003)
Cooling Degree Days 8    
Growing Degree Days 24 (Base 50)    
Moisture  
Dew Point 39 °F    
Average Humidity 31    
Maximum Humidity 58    
Minimum Humidity 11    
Precipitation  
Precipitation 0.00 in - - ()
Sea Level Pressure  
Sea Level Pressure 30.04 in    
Wind  
Wind Speed 5 mph (West)    
Max Wind Speed 8 mph    
Max Gust Speed -    
Visibility 10 miles    
Events      
Averages and records for this station are not official NWS values.
T = Trace of Precipitation, MM = Missing Value Source: NWS Daily Summary

Daily Weather History Graph

Daily Weather History Graph

Search for Another Location

Airport or City:

Trip Planner

Search our weather history database for the weather conditions in past years. The results will help you decide how hot, cold, wet, or windy it might be!

Date:

Astronomy

May. 11, 2013 Rise Set
Actual Time 5:51 AM PDT 7:45 PM PDT
Civil Twilight 5:23 AM PDT 8:13 PM PDT
Nautical Twilight 4:49 AM PDT 8:46 PM PDT
Astronomical Twilight 4:13 AM PDT 9:22 PM PDT
Moon 7:03 AM PDT (5/11) 9:27 PM PDT (5/11)
Length of Visible Light 14h 49m
Length of Day
13h 54m
Waxing Crescent, 3% of the Moon is Illuminated
May 11
Waxing Crescent
May 17
First Quarter
May 24
Full
May 31
Last Quarter
Jun 8
New

Hourly Weather History & Observations

Time (PDT) Temp. Dew Point Humidity Pressure Visibility Wind Dir Wind Speed Gust Speed Precip Events Conditions
12:58 AM 66.9 °F 44.8 °F 45% 30.06 in 10.0 mi SSW 6.9 mph - N/A   Clear
1:58 AM 63.3 °F 43.2 °F 48% 30.06 in 10.0 mi SSW 5.8 mph - N/A   Clear
2:58 AM 60.4 °F 43.0 °F 53% 30.04 in 10.0 mi SSW 5.8 mph - N/A   Clear
3:58 AM 60.1 °F 44.6 °F 57% 30.04 in 10.0 mi SW 6.9 mph - N/A   Clear
4:58 AM 58.3 °F 43.7 °F 58% 30.04 in 10.0 mi WSW 3.5 mph - N/A   Clear
5:58 AM 55.2 °F 39.4 °F 55% 30.06 in 80.0 mi NNW 4.6 mph - N/A   Clear
6:58 AM 58.3 °F 41.4 °F 53% 30.08 in 80.0 mi NW 3.5 mph - N/A   Clear
7:58 AM 63.1 °F 42.3 °F 46% 30.09 in 80.0 mi North 3.5 mph - N/A   Clear
8:58 AM 68.9 °F 44.6 °F 42% 30.10 in 80.0 mi NW 1.2 mph - N/A   Partly Cloudy
9:58 AM 74.5 °F 44.8 °F 35% 30.09 in 70.0 mi NNE 3.5 mph - N/A   Partly Cloudy
10:58 AM 79.5 °F 43.5 °F 28% 30.10 in 70.0 mi NNE 3.5 mph - N/A   Partly Cloudy
11:58 AM 84.9 °F 42.6 °F 23% 30.08 in 70.0 mi North 4.6 mph - N/A   Mostly Cloudy
12:58 PM 88.9 °F 38.7 °F 17% 30.06 in 80.0 mi Variable 4.6 mph - N/A   Scattered Clouds
1:58 PM 90.5 °F 32.0 °F 12% 30.05 in 80.0 mi Variable 2.3 mph - N/A   Partly Cloudy
2:58 PM 91.9 °F 33.1 °F 12% 30.02 in 80.0 mi NNE 6.9 mph - N/A   Partly Cloudy
3:58 PM 91.9 °F 33.1 °F 12% 30.00 in 80.0 mi NNW 5.8 mph - N/A   Partly Cloudy
4:58 PM 92.8 °F 33.8 °F 12% 29.99 in 70.0 mi ENE 5.8 mph - N/A   Partly Cloudy
5:58 PM 91.8 °F 30.7 °F 11% 29.99 in 60.0 mi Variable 4.6 mph - N/A   Scattered Clouds
6:58 PM 90.9 °F 30.2 °F 11% 29.98 in 10.0 mi SE 6.9 mph - N/A   Partly Cloudy
7:58 PM 84.7 °F 29.3 °F 13% 29.99 in 10.0 mi SSE 4.6 mph - N/A   Clear
8:58 PM 79.7 °F 28.6 °F 15% 30.01 in 10.0 mi South 5.8 mph - N/A   Clear
9:58 PM 77.2 °F 39.2 °F 26% 30.04 in 10.0 mi SW 8.1 mph - N/A   Clear
10:58 PM 73.6 °F 39.9 °F 30% 30.05 in 10.0 mi SSW 5.8 mph - N/A   Clear
11:58 PM 68.0 °F 39.0 °F 35% 30.05 in 10.0 mi South 5.8 mph - N/A   Clear